Location: Austin
(30.3000°N, 97.7500°W)
Time: 03:17:38
(UTC-05:00)

Okean 2 - Pass Details

Date: 01 October 2024
Orbit: 536 x 546 km, 82.5° (Epoch: 06 October)

Event Time Altitude Azimuth Distance (km) Brightness Sun altitude
Rises 20:05:50 0° 10° (N) 2,715 6.8 -11.7°
Reaches altitude 10° 20:08:20 10° 24° (NNE) 1,819 5.8 -12.2°
Maximum altitude 20:11:35 24° 79° (E) 1,167 4.4 -12.9°
Enters shadow 20:12:50 20° 107° (ESE) 1,280 4.6 -13.2°
